星链-30797 (STARLINK-30797 )

导读

STARLINK-30797是美国太空探索技术公司SpaceX星链互联网卫星星座的一员,于2023年10月29日发射入轨,承担全球低延迟宽带互联网覆盖任务。星链作为大规模近地轨道卫星星座,该星的入轨进一步扩充了星座规模,提升服务覆盖密度,为全球尤其是偏远区域提供互联网接入服务。

基本信息
目录编号:
58154
目录名称:
STARLINK-30797
国际标识:
2023-166E
轨道中心:
EARTH
卫星名称:
星链-30797
卫星全名:
星链-30797 (STARLINK-30797 )
卫星状态:
在轨 (已飞行963 天)
发射日期:
2023-10-29 UTC
国别 :
美国 (US)
星等 :
--
轨道信息
数据来源 国际轨道数据
星历时间: 2026-06-17T11:55:28+0800
1天前
查看轨道信息
半长轴: 6853.373km
偏心率: 0.000133
轨道倾角: 53.159°
近地点辐角 104.909°
升交点赤经 117.735°
平近点角 255.205°
近地点: 474.324km
远地点: 476.148km
周期: 94.106分钟
每日圈数: 15.30193
详细信息
固有亮度:
5
最大亮度:
0.3
卫星平台:
Starlink v2.0 mini
覆盖范围:
全球
运营商:
太空探索技术公司
运营商所在国:
美国
制造商(研发单位):
太空探索技术公司
制造商所在国:
美国
使用方式:
暂无
卫星简介
星链(Starlink)计划是由太空探索技术公司(SpaceX)提出的一个巨型低轨卫星互联网星座项目,计划在2019年至2024年间在太空搭建由约1.2万颗卫星组成的“星链”网络,其中1584颗将部署在地球上空550千米处的近地轨道,并从2020年开始工作。该卫星仍在工作。
2D轨道图
3D轨道图
轨道高度分析图
轨道倾角分析图
轨道综合分析图
查看轨道综合分析图